This is the latest recevied weather packets stored in our database for station/object F5OZP-13. If no packets are shown the sender has not sent any weather packets the latest 10 day(s).
| Time | Temp. | Humidity | Pressure | Rain* | Wind** | Luminosity | Snow |
|---|---|---|---|---|---|---|---|
| 1777997089 | 17.22° C | 99% | 1014.6 hPa | - | - | 0 W/m² | - |
| 1777996778 | 15.56° C | 99% | 1014.7 hPa | - | - | 1 W/m² | - |
| 1777996470 | 15.56° C | 99% | 1014.7 hPa | - | - | 0 W/m² | - |
| 1777996169 | 15.56° C | 99% | 1014.7 hPa | - | - | 0 W/m² | - |
| 1777995853 | 16.11° C | 99% | 1014.7 hPa | - | - | 0 W/m² | - |
| 1777995545 | 16.67° C | 99% | 1014.6 hPa | - | - | 0 W/m² | - |
| 1777995237 | 17.22° C | 99% | 1014.7 hPa | - | - | 0 W/m² | - |
| 1777994929 | 18.89° C | 99% | 1014.6 hPa | - | - | 0 W/m² | - |
| 1777994621 | 17.22° C | 99% | 1014.5 hPa | - | - | 0 W/m² | - |
| 1777994321 | 17.22° C | 99% | 1014.6 hPa | - | - | 13 W/m² | - |
| 1777994004 | 18.33° C | 99% | 1014.7 hPa | - | - | 0 W/m² | - |
| 1777993701 | 17.78° C | 99% | 1014.7 hPa | - | - | 16 W/m² | - |
| 1777993393 | 17.78° C | 99% | 1014.7 hPa | - | - | 28 W/m² | - |
| 1777993084 | 18.89° C | 99% | 1014.6 hPa | - | - | 24 W/m² | - |
| 1777992776 | 18.89° C | 99% | 1014.6 hPa | - | - | 28 W/m² | - |
| 1777992476 | 18.33° C | 99% | 1014.7 hPa | - | - | 26 W/m² | - |
| 1777992160 | 18.89° C | 99% | 1014.7 hPa | - | - | 28 W/m² | - |
| 1777991852 | 19.44° C | 99% | 1014.7 hPa | - | - | 25 W/m² | - |
| 1777991544 | 18.89° C | 99% | 1014.6 hPa | - | - | 31 W/m² | - |
| 1777991235 | 18.89° C | 99% | 1014.7 hPa | - | - | 45 W/m² | - |
| 1777990927 | 17.78° C | 99% | 1014.7 hPa | - | - | 0 W/m² | - |
| 1777990632 | 18.33° C | 99% | 1014.7 hPa | - | - | 0 W/m² | - |
| 1777990013 | 19.44° C | 99% | 1014.6 hPa | - | - | 8 W/m² | - |
| 1777989704 | 18.89° C | 99% | 1014.6 hPa | - | - | 36 W/m² | - |
| 1777989396 | 17.78° C | 99% | 1014.7 hPa | - | - | 36 W/m² | - |
* Rain since midnight (hover to see other rain measurements)
** Current wind speed in m/s (hover to see current wind gust speed)